KUIPER-00118

导读 | 豆包AI

KUIPER-00118是美国亚马逊柯伊伯(Kuiper)低轨互联网卫星星座的第118颗卫星,于2025年8月11日发射。该星座计划部署3236颗卫星,通过多波束相控阵天线、软件定义网络技术,为全球提供高速互联网接入,卫星可灵活分配容量,支持低延迟高带宽通信,KUIPER-00118的入役将推进星座全球覆盖部署。

Basic Information
目录编号:
65154
目录名称:
KUIPER-00118
国际标识:
2025-171Y
轨道中心:
EARTH
卫星名称:
KUIPER-00118
卫星全名:
KUIPER-00118
卫星状态:
在轨 (已飞行287 天)
发射日期:
2025-08-11 UTC
国别 :
美国 (US)
星等 :
--
Orbit Information
数据来源 国际轨道数据
星历时间: 2026-05-24T12:34:34+0800
22小时前
查看轨道信息
半长轴: 7007.506km
偏心率: 0.0000498
轨道倾角: 51.899°
近地点辐角 80.245°
升交点赤经 201.720°
平近点角 279.857°
近地点: 629.02km
远地点: 629.718km
周期: 97.298分钟
每日圈数: 14.799858
Detailed Information
使用方式:
暂无
2D Orbit Map
3D Orbit Map
Orbit Altitude Analysis Chart
Orbit Inclination Analysis Chart
Orbit Comprehensive Analysis Chart
View Comprehensive Chart